Location: Unspecified
(49.2170°N, 0.0000°E)
Time: 15:10:31
(UTC+00:00)

A-11 Canister half - Pass Details

Date: 24 June 2019
Orbit: 1526 x 1683 km, 47.3° (Epoch: 17 July)

Event Time Altitude Azimuth Distance (km) Brightness Sun altitude
Rises 04:04:42 0° 226° (SW) 4,760 10.9 0.4°
Reaches altitude 10° 04:07:55 10° 222° (SW) 3,757 10.4 0.8°
Maximum altitude 04:16:55 51° 150° (SSE) 1,868 9.5 2.0°
Drops below altitude 10° 04:25:47 10° 78° (ENE) 3,698 12.6 3.2°
Sets 04:28:54 0° 73° (ENE) 4,680 13.4 3.6°
